TimePDT,TemperatureF,Dew PointF,Humidity,Sea Level PressureIn,VisibilityMPH,Wind Direction,Wind SpeedMPH,Gust SpeedMPH,PrecipitationIn,Events,Conditions,WindDirDegrees,DateUTC
12:15 AM,57.2,24.8,29,30.11,10.0,WSW,15.0,27.6,N/A,,Clear,240,2013-09-29 07:15:00
12:35 AM,57.2,24.8,29,30.10,10.0,WSW,20.7,26.5,N/A,,Clear,240,2013-09-29 07:35:00
12:55 AM,57.2,26.6,31,30.10,10.0,SW,24.2,31.1,N/A,,Clear,230,2013-09-29 07:55:00
1:15 AM,59.0,26.6,29,30.09,10.0,SW,25.3,35.7,N/A,,Clear,230,2013-09-29 08:15:00
1:35 AM,57.2,24.8,29,30.10,10.0,WSW,18.4,35.7,N/A,,Clear,240,2013-09-29 08:35:00
1:55 AM,57.2,26.6,31,30.11,10.0,WSW,17.3,31.1,N/A,,Clear,240,2013-09-29 08:55:00
2:15 AM,57.2,28.4,33,30.10,10.0,WSW,21.9,31.1,N/A,,Clear,240,2013-09-29 09:15:00
2:35 AM,57.2,30.2,36,30.10,10.0,West,17.3,27.6,N/A,,Clear,260,2013-09-29 09:35:00
2:55 AM,57.2,32.0,38,30.08,10.0,WSW,24.2,42.6,N/A,,Clear,240,2013-09-29 09:55:00
3:15 AM,57.2,30.2,36,30.08,10.0,West,19.6,39.1,N/A,,Clear,260,2013-09-29 10:15:00
3:35 AM,57.2,28.4,33,30.08,10.0,West,21.9,38.0,N/A,,Clear,260,2013-09-29 10:35:00
3:55 AM,57.2,28.4,33,30.07,10.0,WSW,24.2,42.6,N/A,,Clear,240,2013-09-29 10:55:00
4:15 AM,57.2,28.4,33,30.07,10.0,SW,19.6,33.4,N/A,,Clear,230,2013-09-29 11:15:00
4:35 AM,57.2,28.4,33,30.07,10.0,WSW,17.3,26.5,N/A,,Clear,250,2013-09-29 11:35:00
4:55 AM,57.2,28.4,33,30.07,10.0,WSW,23.0,31.1,N/A,,Clear,240,2013-09-29 11:55:00
5:15 AM,55.4,26.6,33,30.07,10.0,WSW,19.6,25.3,N/A,,Clear,240,2013-09-29 12:15:00
5:35 AM,57.2,26.6,31,30.08,10.0,WSW,20.7,36.8,N/A,,Clear,250,2013-09-29 12:35:00
5:55 AM,55.4,26.6,33,30.07,10.0,West,21.9,28.8,N/A,,Clear,260,2013-09-29 12:55:00
6:15 AM,57.2,26.6,31,30.07,10.0,WSW,25.3,36.8,N/A,,Clear,240,2013-09-29 13:15:00
6:35 AM,57.2,26.6,31,30.07,10.0,WSW,26.5,39.1,N/A,,Clear,250,2013-09-29 13:35:00
6:55 AM,55.4,28.4,36,30.07,10.0,WSW,20.7,33.4,N/A,,Clear,240,2013-09-29 13:55:00
7:15 AM,55.4,28.4,36,30.07,10.0,WSW,20.7,34.5,N/A,,Clear,240,2013-09-29 14:15:00
7:35 AM,55.4,30.2,38,30.07,10.0,WSW,15.0,26.5,N/A,,Clear,250,2013-09-29 14:35:00
7:55 AM,57.2,30.2,36,30.06,10.0,WSW,27.6,34.5,N/A,,Clear,240,2013-09-29 14:55:00
8:15 AM,57.2,32.0,38,30.05,10.0,WSW,23.0,32.2,N/A,,Clear,240,2013-09-29 15:15:00
8:35 AM,57.2,30.2,36,30.05,10.0,WSW,19.6,36.8,N/A,,Clear,240,2013-09-29 15:35:00
8:55 AM,57.2,30.2,36,30.06,10.0,WSW,27.6,48.3,N/A,,Clear,240,2013-09-29 15:55:00
9:15 AM,57.2,30.2,36,30.05,10.0,SW,28.8,42.6,N/A,,Clear,230,2013-09-29 16:15:00
9:35 AM,59.0,28.4,31,30.06,10.0,WSW,27.6,42.6,N/A,,Clear,240,2013-09-29 16:35:00
9:55 AM,59.0,28.4,31,30.06,10.0,WSW,28.8,46.0,N/A,,Clear,240,2013-09-29 16:55:00
10:15 AM,62.6,28.4,27,30.06,10.0,WSW,26.5,38.0,N/A,,Clear,250,2013-09-29 17:15:00
10:35 AM,62.6,28.4,27,30.07,10.0,WSW,27.6,34.5,N/A,,Clear,240,2013-09-29 17:35:00
10:55 AM,64.4,26.6,24,30.06,10.0,WSW,32.2,50.6,N/A,,Clear,250,2013-09-29 17:55:00
11:15 AM,64.4,26.6,24,30.06,10.0,WSW,29.9,44.9,N/A,,Clear,250,2013-09-29 18:15:00
11:35 AM,64.4,26.6,24,30.06,10.0,WSW,33.4,42.6,N/A,,Clear,250,2013-09-29 18:35:00
11:55 AM,64.4,26.6,24,30.06,10.0,WSW,32.2,43.7,N/A,,Clear,240,2013-09-29 18:55:00
12:15 PM,64.4,26.6,24,30.06,10.0,WSW,27.6,43.7,N/A,,Clear,240,2013-09-29 19:15:00
12:35 PM,66.2,26.6,23,30.06,10.0,WSW,31.1,36.8,N/A,,Clear,240,2013-09-29 19:35:00
12:55 PM,66.2,28.4,24,30.06,10.0,SW,28.8,36.8,N/A,,Clear,230,2013-09-29 19:55:00
1:15 PM,64.4,28.4,26,30.06,10.0,WSW,32.2,47.2,N/A,,Clear,240,2013-09-29 20:15:00
1:35 PM,64.4,28.4,26,30.05,10.0,WSW,26.5,40.3,N/A,,Clear,240,2013-09-29 20:35:00
1:55 PM,66.2,28.4,24,30.04,10.0,WSW,26.5,36.8,N/A,,Clear,240,2013-09-29 20:55:00
2:15 PM,66.2,28.4,24,30.04,10.0,WSW,28.8,38.0,N/A,,Clear,250,2013-09-29 21:15:00
2:35 PM,66.2,26.6,23,30.03,10.0,WSW,29.9,42.6,N/A,,Clear,240,2013-09-29 21:35:00
2:55 PM,66.2,28.4,24,30.02,10.0,WSW,31.1,44.9,N/A,,Clear,240,2013-09-29 21:55:00
3:15 PM,68.0,26.6,21,30.02,10.0,WSW,32.2,46.0,N/A,,Clear,240,2013-09-29 22:15:00
3:35 PM,66.2,28.4,24,30.02,10.0,WSW,25.3,44.9,N/A,,Clear,240,2013-09-29 22:35:00
3:55 PM,66.2,30.2,26,30.02,10.0,WSW,33.4,44.9,N/A,,Clear,240,2013-09-29 22:55:00
4:15 PM,64.4,30.2,28,30.03,10.0,WSW,28.8,41.4,N/A,,Clear,240,2013-09-29 23:15:00
4:35 PM,62.6,28.4,27,30.03,10.0,WSW,28.8,43.7,N/A,,Clear,240,2013-09-29 23:35:00
4:55 PM,62.6,30.2,30,30.04,10.0,WSW,26.5,39.1,N/A,,Clear,240,2013-09-29 23:55:00
5:15 PM,62.6,32.0,32,30.03,10.0,WSW,33.4,43.7,N/A,,Clear,240,2013-09-30 00:15:00
5:35 PM,62.6,32.0,32,30.04,10.0,WSW,25.3,39.1,N/A,,Clear,240,2013-09-30 00:35:00
5:55 PM,62.6,32.0,32,30.04,10.0,WSW,24.2,35.7,N/A,,Clear,250,2013-09-30 00:55:00
6:15 PM,60.8,32.0,34,30.03,10.0,WSW,25.3,39.1,N/A,,Clear,240,2013-09-30 01:15:00
6:35 PM,59.0,32.0,36,30.03,10.0,WSW,26.5,38.0,N/A,,Clear,240,2013-09-30 01:35:00
6:55 PM,59.0,32.0,36,30.03,10.0,WSW,24.2,35.7,N/A,,Clear,250,2013-09-30 01:55:00
7:15 PM,57.2,32.0,38,30.03,10.0,WSW,26.5,41.4,N/A,,Clear,250,2013-09-30 02:15:00
7:35 PM,57.2,30.2,36,30.04,10.0,West,28.8,38.0,N/A,,Clear,260,2013-09-30 02:35:00
7:55 PM,57.2,32.0,38,30.05,10.0,West,18.4,31.1,N/A,,Clear,270,2013-09-30 02:55:00
8:15 PM,57.2,32.0,38,30.06,10.0,WSW,20.7,28.8,N/A,,Clear,250,2013-09-30 03:15:00
8:35 PM,57.2,32.0,38,30.06,10.0,WSW,26.5,32.2,N/A,,Clear,250,2013-09-30 03:35:00
8:55 PM,55.4,32.0,41,30.07,10.0,WSW,20.7,36.8,N/A,,Clear,250,2013-09-30 03:55:00
9:15 PM,55.4,32.0,41,30.06,10.0,WSW,26.5,39.1,N/A,,Clear,240,2013-09-30 04:15:00
9:35 PM,55.4,32.0,41,30.06,10.0,WSW,26.5,38.0,N/A,,Clear,250,2013-09-30 04:35:00
9:55 PM,55.4,35.6,47,30.06,10.0,WSW,28.8,41.4,N/A,,Clear,250,2013-09-30 04:55:00
10:15 PM,55.4,35.6,47,30.06,10.0,WSW,20.7,34.5,N/A,,Clear,240,2013-09-30 05:15:00
10:35 PM,55.4,35.6,47,30.05,10.0,WSW,20.7,29.9,N/A,,Clear,240,2013-09-30 05:35:00
10:55 PM,55.4,33.8,44,30.04,10.0,WSW,27.6,38.0,N/A,,Clear,240,2013-09-30 05:55:00
11:15 PM,55.4,33.8,44,30.04,10.0,WSW,33.4,43.7,N/A,,Clear,240,2013-09-30 06:15:00
11:35 PM,55.4,33.8,44,30.05,10.0,WSW,24.2,41.4,N/A,,Clear,250,2013-09-30 06:35:00
11:55 PM,55.4,33.8,44,30.06,10.0,West,23.0,31.1,N/A,,Clear,260,2013-09-30 06:55:00